Regional Weather Roundup
Issued by NWS Northern Indiana

Home | Current Version | Previous Version | Text Only | Print | Product List | Glossary On
Versions: 1 2 3 4 5 6 7 8 9 10 11 12 13 14 15 16 17 18 19 20 21 22 23 24 25 26 27 28 29 30 31 32 33 34 35 36 37 38 39 40 41 42 43 44 45 46 47 48 49 50
000
ASUS43 KIWX 170210
RWRIWX

KIWX WEATHER ROUNDUP
NATIONAL WEATHER SERVICE NORTHERN INDIANA
1000 PM EDT WED AUG 16 2017

NOTE: "FAIR" INDICATES FEW OR NO CLOUDS BELOW 12,000 FEET WITH NO
SIGNIFICANT WEATHER AND/OR OBSTRUCTIONS TO VISIBILITY.

* THESE STATIONS ARE NOT UNDER NWS QUALITY CONTROL. THEY ALSO MAY NOT
  REPORT WEATHER SUCH AS PRECIPITATION OR FOG.

INZ001>027-170300-
NORTHERN INDIANA

CITY           SKY/WX    TMP DP  RH WIND       PRES   REMARKS
GARY*          CLOUDY    81  72  74 SE5       29.90R
VALPARAISO     CLOUDY    80  72  76 S5        29.92R
MICHIGAN CITY* CLOUDY    79  68  69 CALM      29.92R
LAPORTE*       CLOUDY    78  70  76 CALM      29.93R
KNOX*          MOCLDY    77  72  83 SE6       29.91S
SOUTH BEND     CLOUDY    81  68  64 S10       29.93R
GOSHEN         CLOUDY    80  67  64 SE7       29.93F
MONTICELLO*    MOCLDY    80  72  76 S6        29.92S
LOGANSPORT*    CLOUDY    77  72  83 SE5       29.94S
ROCHESTER*     CLOUDY    81  72  74 S3        29.94S
WARSAW*        CLOUDY    77  70  78 SE3       29.94S
AUBURN*        CLOUDY    77  66  69 E3        29.97S
FORT WAYNE     CLOUDY    78  68  71 SE5       29.96S
HUNTINGTON*    CLOUDY    78  68  71 CALM      29.95S
PERU/GRISSOM   MOCLDY    79  72  80 S6        29.93S
MARION*        MOCLDY    77  70  78 SE6       29.96S

$$
INZ028>050-170300-
CENTRAL INDIANA

CITY           SKY/WX    TMP DP  RH WIND       PRES   REMARKS
LAFAYETTE      CLOUDY    79  72  79 S7        29.91S
KOKOMO*        CLOUDY    77  72  84 S6        29.95S
MUNCIE*        PTCLDY    81  69  67 SE3       29.97R
INDIANAPOLIS   MOCLDY    79  72  79 S9        29.94S

$$
MIZ043>046-050>051-056>058-064>065-071>073-077>080-170300-
SOUTHWEST LOWER MICHIGAN

CITY           SKY/WX    TMP DP  RH WIND       PRES   REMARKS
BATTLE CREEK   CLOUDY    81  66  60 SE9       29.96S
BENTON HARBOR  MOCLDY    80  68  66 SE5       29.91R
COLDWATER*     CLOUDY    77  65  65 SE9G16    29.97S
HILLSDALE*     CLOUDY    72  61  68 E7        30.00R
HOLLAND        MOCLDY    77  68  73 SE5       29.92S
GRAND RAPIDS   CLOUDY    78  66  66 E7        29.93F
KALAMAZOO      CLOUDY    80  64  58 SE5       29.94S
STURGIS*       CLOUDY    79  67  67 SE8       29.94F
THREE RIVERS*  FAIR      80  67  64 SE5       29.94S

$$
OHZ001>008-015>018-024>025-170300-
NORTHWEST OHIO

CITY           SKY/WX    TMP DP  RH WIND       PRES   REMARKS
WAUSEON*         N/A     73  63  68 SE7G14    30.00R
DEFIANCE       CLOUDY    76  66  71 E9        29.97S
FINDLAY        CLEAR     77  63  61 E8        29.99R
TOLEDO EXPRESS CLEAR     73  62  68 E6        29.99S
TOLEDO METCALF CLEAR     71  62  73 E7        30.01R
LIMA           CLEAR     71  69  93 SE5       29.99R

$$
AND FOR LAKE MICHIGAN COASTAL AND OPEN LAKE BUOY OBSERVATIONS

STATION/POSITION TEMP    WIND        PRES    VSBY  WAVE
                 AIR SEA DIR/SP/G                  HT/PER
                 (F)     (DEG/KT/KT) (MB)    (MI)  (FT/S)
CALUMET HARBOR    81     160/  7/ 10 1011.5S
MICHIGAN CITY     81     150/  6/  9   N/A
BURNS HARBOR      83     180/  5/ 13 1012.5
SAINT JOSEPH      81      CALM  /  3 1013.2
SOUTH LAKE BUOY   75 73   70/ 10/ 10 1011.7          1
4 MI NW BRIDGMAN  79 75  180/  6/  8 1012.2          1
MICHIGAN CITY     78 76  160/  6/  6   N/A           1

$$
&&



USA.gov is the U.S. government's official web portal to all federal, state and local government web resources and services.